Tracking 28799 objects as of 17-Apr-2024
HD Live streaming from Space Station
objects crossing your sky now

SL-8 DEB

Track SL-8 DEB now!
10-day predictions


NORAD ID: 21211
Int'l Code: 1991-009BE
Perigee: 1,441.3 km
Apogee: 1,761.0 km
Inclination: 74.1 °
Period: 118.1 minutes
Semi major axis: 7972 km
RCS: 0.0855 m2 (small)
Launch date: February 12, 1991
Source: Commonwealth of Independent States (former USSR) (CIS)
Launch site: PLESETSK MISSILE AND SPACE COMPLEX (PKMTR)

Note: This is SATELLITE DEBRIS
Your satellite tracking list
Your tracking list is empty




NASA's NSSDC Master Catalog

Two Line Element Set (TLE):
1 21211U 91009BE  24106.93612361  .00000214  00000-0  20945-2 0  9999
2 21211  74.0974 179.0457 0200491 281.8672 255.1484 12.19657497470622
Source of the keplerian elements: AFSPC